Time,TemperatureF,DewpointF,PressureIn,WindDirection,WindDirectionDegrees,WindSpeedMPH,WindSpeedGustMPH,Humidity,HourlyPrecipIn,Conditions,Clouds,dailyrainin,SoftwareType,DateUTC
2013-05-28 00:02:00,-999.0,-99.9,28.79,North,-999,-999.0,-999.0,-999,0.00,,,0.00,WSDL version 420,2013-05-28 06:02:00,
2013-05-28 00:07:00,40.3,32.0,28.79,North,-999,-999.0,-999.0,72,0.00,,,0.00,WSDL version 420,2013-05-28 06:07:00,
2013-05-28 00:12:00,39.9,31.4,28.79,North,-999,-999.0,-999.0,72,-99.99,,,-99.99,WSDL version 420,2013-05-28 06:12:00,
2013-05-28 00:17:00,40.1,32.1,28.79,North,-999,-999.0,-999.0,73,0.00,,,0.00,WSDL version 420,2013-05-28 06:17:00,
2013-05-28 00:22:00,40.2,32.8,28.79,North,-999,-999.0,-999.0,75,0.00,,,0.00,WSDL version 420,2013-05-28 06:22:00,
2013-05-28 00:27:00,40.2,33.4,28.79,North,-999,-999.0,-999.0,77,0.00,,,0.00,WSDL version 420,2013-05-28 06:27:00,
2013-05-28 00:32:00,40.4,34.0,28.79,North,-999,-999.0,-999.0,78,0.00,,,0.00,WSDL version 420,2013-05-28 06:32:00,
2013-05-28 00:37:00,40.4,33.7,28.79,North,-999,-999.0,-999.0,76,0.00,,,0.00,WSDL version 420,2013-05-28 06:37:00,
2013-05-28 00:42:00,40.2,33.3,28.79,North,-999,-999.0,-999.0,76,0.00,,,0.00,WSDL version 420,2013-05-28 06:42:00,
2013-05-28 00:47:00,40.1,33.5,28.79,North,-999,-999.0,-999.0,78,0.00,,,0.00,WSDL version 420,2013-05-28 06:47:00,
2013-05-28 00:52:00,40.2,33.9,28.79,North,-999,-999.0,-999.0,78,0.00,,,0.00,WSDL version 420,2013-05-28 06:52:00,
2013-05-28 00:57:00,40.1,33.5,28.79,North,-999,-999.0,-999.0,77,0.00,,,0.00,WSDL version 420,2013-05-28 06:57:00,
2013-05-28 01:02:00,39.7,32.6,28.79,North,-999,-999.0,-999.0,75,0.00,,,0.00,WSDL version 420,2013-05-28 07:02:00,
2013-05-28 01:07:00,39.4,32.2,28.79,North,-999,-999.0,-999.0,75,-99.99,,,-99.99,WSDL version 420,2013-05-28 07:07:00,
2013-05-28 01:12:00,39.5,32.6,28.79,North,-999,-999.0,-999.0,76,-99.99,,,-99.99,WSDL version 420,2013-05-28 07:12:00,
2013-05-28 01:17:00,-999.0,-99.9,28.79,North,-999,-999.0,-999.0,-999,-99.99,,,-99.99,WSDL version 420,2013-05-28 07:17:00,
2013-05-28 01:22:00,39.1,32.3,28.79,North,-999,-999.0,-999.0,76,0.00,,,0.00,WSDL version 420,2013-05-28 07:22:00,
2013-05-28 01:27:00,38.8,31.9,28.79,North,-999,-999.0,-999.0,76,0.00,,,0.00,WSDL version 420,2013-05-28 07:27:00,
2013-05-28 01:32:00,38.6,31.7,28.79,North,-999,-999.0,-999.0,76,-99.99,,,-99.99,WSDL version 420,2013-05-28 07:32:00,
2013-05-28 01:37:00,38.5,31.7,28.79,North,-999,-999.0,-999.0,77,-99.99,,,-99.99,WSDL version 420,2013-05-28 07:37:00,
2013-05-28 01:42:00,38.6,32.2,28.79,North,-999,-999.0,-999.0,78,-99.99,,,-99.99,WSDL version 420,2013-05-28 07:42:00,
2013-05-28 01:47:00,38.6,32.7,28.76,North,-999,-999.0,-999.0,82,-99.99,,,-99.99,WSDL version 420,2013-05-28 07:47:00,
2013-05-28 01:52:00,39.5,35.5,28.76,North,-999,-999.0,-999.0,88,-99.99,,,-99.99,WSDL version 420,2013-05-28 07:52:00,
2013-05-28 01:57:00,40.5,38.1,28.76,North,-999,-999.0,-999.0,92,-99.99,,,-99.99,WSDL version 420,2013-05-28 07:57:00,
2013-05-28 02:02:00,41.0,38.6,28.76,North,-999,-999.0,-999.0,90,-99.99,,,-99.99,WSDL version 420,2013-05-28 08:02:00,
2013-05-28 02:07:00,41.0,38.1,28.76,North,-999,-999.0,-999.0,89,-99.99,,,-99.99,WSDL version 420,2013-05-28 08:07:00,
2013-05-28 02:12:00,40.6,37.1,28.76,North,-999,-999.0,-999.0,87,-99.99,,,-99.99,WSDL version 420,2013-05-28 08:12:00,
2013-05-28 02:17:00,40.2,36.1,28.79,North,-999,-999.0,-999.0,84,-99.99,,,-99.99,WSDL version 420,2013-05-28 08:17:00,
2013-05-28 02:22:00,40.1,35.8,28.79,North,-999,-999.0,-999.0,84,0.00,,,0.00,WSDL version 420,2013-05-28 08:22:00,
2013-05-28 02:27:00,40.1,36.0,28.79,North,-999,-999.0,-999.0,86,-99.99,,,-99.99,WSDL version 420,2013-05-28 08:27:00,
2013-05-28 02:32:00,40.0,35.9,28.79,North,-999,-999.0,-999.0,84,-99.99,,,-99.99,WSDL version 420,2013-05-28 08:32:00,
2013-05-28 02:37:00,39.7,35.2,28.79,North,-999,-999.0,-999.0,83,0.00,,,0.00,WSDL version 420,2013-05-28 08:37:00,
2013-05-28 02:42:00,39.7,35.2,28.79,North,-999,-999.0,-999.0,84,0.00,,,0.00,WSDL version 420,2013-05-28 08:42:00,
2013-05-28 02:47:00,39.9,35.9,28.79,North,-999,-999.0,-999.0,86,-99.99,,,-99.99,WSDL version 420,2013-05-28 08:47:00,
2013-05-28 02:52:00,39.8,35.8,28.79,North,-999,-999.0,-999.0,84,0.00,,,0.00,WSDL version 420,2013-05-28 08:52:00,
2013-05-28 02:57:00,39.5,35.0,28.79,North,-999,-999.0,-999.0,83,0.00,,,0.00,WSDL version 420,2013-05-28 08:57:00,
2013-05-28 03:02:00,39.0,34.1,28.79,North,-999,-999.0,-999.0,82,0.00,,,0.00,WSDL version 420,2013-05-28 09:02:00,
2013-05-28 03:07:00,38.7,33.7,28.79,North,-999,-999.0,-999.0,82,0.00,,,0.00,WSDL version 420,2013-05-28 09:07:00,
2013-05-28 03:12:00,38.8,34.1,28.79,North,-999,-999.0,-999.0,83,0.00,,,0.00,WSDL version 420,2013-05-28 09:12:00,
2013-05-28 03:17:00,39.2,35.2,28.79,North,-999,-999.0,-999.0,88,-99.99,,,-99.99,WSDL version 420,2013-05-28 09:17:00,
2013-05-28 03:22:00,39.9,36.9,28.79,North,-999,-999.0,-999.0,89,0.00,,,0.00,WSDL version 420,2013-05-28 09:22:00,
2013-05-28 03:27:00,40.2,37.1,28.79,North,-999,-999.0,-999.0,88,0.00,,,0.00,WSDL version 420,2013-05-28 09:27:00,
2013-05-28 03:32:00,39.7,35.9,28.79,North,-999,-999.0,-999.0,86,0.00,,,0.00,WSDL version 420,2013-05-28 09:32:00,
2013-05-28 03:37:00,39.1,34.6,28.79,North,-999,-999.0,-999.0,83,0.00,,,0.00,WSDL version 420,2013-05-28 09:37:00,
2013-05-28 03:42:00,38.8,34.4,28.79,North,-999,-999.0,-999.0,84,0.00,,,0.00,WSDL version 420,2013-05-28 09:42:00,
2013-05-28 03:47:00,38.7,34.4,28.79,North,-999,-999.0,-999.0,84,0.00,,,0.00,WSDL version 420,2013-05-28 09:47:00,
2013-05-28 03:52:00,38.8,34.8,28.79,North,-999,-999.0,-999.0,87,0.00,,,0.00,WSDL version 420,2013-05-28 09:52:00,
2013-05-28 03:57:00,39.1,35.4,28.79,North,-999,-999.0,-999.0,87,0.00,,,0.00,WSDL version 420,2013-05-28 09:57:00,
2013-05-28 04:02:00,39.3,35.9,28.79,North,-999,-999.0,-999.0,88,0.00,,,0.00,WSDL version 420,2013-05-28 10:02:00,
2013-05-28 04:07:00,39.2,35.7,28.79,North,-999,-999.0,-999.0,87,0.00,,,0.00,WSDL version 420,2013-05-28 10:07:00,
2013-05-28 04:12:00,39.2,35.5,28.79,North,-999,-999.0,-999.0,87,0.00,,,0.00,WSDL version 420,2013-05-28 10:12:00,
2013-05-28 04:17:00,39.1,35.5,28.79,North,-999,-999.0,-999.0,87,0.00,,,0.00,WSDL version 420,2013-05-28 10:17:00,
2013-05-28 04:22:00,39.1,35.5,28.79,North,-999,-999.0,-999.0,87,0.00,,,0.00,WSDL version 420,2013-05-28 10:22:00,
2013-05-28 04:27:00,39.2,35.6,28.79,North,-999,-999.0,-999.0,87,0.00,,,0.00,WSDL version 420,2013-05-28 10:27:00,
2013-05-28 04:32:00,39.2,35.6,28.79,North,-999,-999.0,-999.0,87,0.00,,,0.00,WSDL version 420,2013-05-28 10:32:00,
2013-05-28 04:37:00,39.2,35.9,28.79,North,-999,-999.0,-999.0,88,0.00,,,0.00,WSDL version 420,2013-05-28 10:37:00,
2013-05-28 04:42:00,39.2,35.9,28.79,North,-999,-999.0,-999.0,88,-99.99,,,-99.99,WSDL version 420,2013-05-28 10:42:00,
2013-05-28 04:47:00,39.5,36.5,28.79,North,-999,-999.0,-999.0,89,-99.99,,,-99.99,WSDL version 420,2013-05-28 10:47:00,
2013-05-28 04:52:00,39.4,36.3,28.79,North,-999,-999.0,-999.0,88,0.00,,,0.00,WSDL version 420,2013-05-28 10:52:00,
2013-05-28 04:57:00,38.9,35.3,28.79,North,-999,-999.0,-999.0,87,0.00,,,0.00,WSDL version 420,2013-05-28 10:57:00,
2013-05-28 05:02:00,39.0,35.3,28.79,North,-999,-999.0,-999.0,87,0.00,,,0.00,WSDL version 420,2013-05-28 11:02:00,
2013-05-28 05:07:00,39.4,36.1,28.79,North,-999,-999.0,-999.0,88,0.00,,,0.00,WSDL version 420,2013-05-28 11:07:00,
2013-05-28 05:12:00,39.6,36.5,28.79,North,-999,-999.0,-999.0,88,0.00,,,0.00,WSDL version 420,2013-05-28 11:12:00,
2013-05-28 05:17:00,39.2,35.9,28.79,North,-999,-999.0,-999.0,88,0.00,,,0.00,WSDL version 420,2013-05-28 11:17:00,
2013-05-28 05:22:00,39.2,35.8,28.79,North,-999,-999.0,-999.0,88,0.00,,,0.00,WSDL version 420,2013-05-28 11:22:00,
2013-05-28 05:27:00,38.9,35.6,28.79,North,-999,-999.0,-999.0,88,0.00,,,0.00,WSDL version 420,2013-05-28 11:27:00,
2013-05-28 05:32:00,38.8,35.3,28.79,North,-999,-999.0,-999.0,87,0.00,,,0.00,WSDL version 420,2013-05-28 11:32:00,
2013-05-28 05:37:00,38.5,34.7,28.79,North,-999,-999.0,-999.0,86,0.00,,,0.00,WSDL version 420,2013-05-28 11:37:00,
2013-05-28 05:42:00,38.5,34.5,28.79,North,-999,-999.0,-999.0,86,-99.99,,,-99.99,WSDL version 420,2013-05-28 11:42:00,
2013-05-28 05:47:00,38.8,35.3,28.79,North,-999,-999.0,-999.0,88,0.00,,,0.00,WSDL version 420,2013-05-28 11:47:00,
2013-05-28 05:52:00,39.1,36.1,28.79,North,-999,-999.0,-999.0,89,0.00,,,0.00,WSDL version 420,2013-05-28 11:52:00,
2013-05-28 05:57:00,39.4,36.4,28.79,North,-999,-999.0,-999.0,89,0.00,,,0.00,WSDL version 420,2013-05-28 11:57:00,
2013-05-28 06:02:00,39.7,36.6,28.79,North,-999,-999.0,-999.0,88,-99.99,,,-99.99,WSDL version 420,2013-05-28 12:02:00,
2013-05-28 06:07:00,40.0,36.7,28.79,North,-999,-999.0,-999.0,88,-99.99,,,-99.99,WSDL version 420,2013-05-28 12:07:00,
2013-05-28 06:12:00,40.4,37.1,28.79,North,-999,-999.0,-999.0,88,0.00,,,0.00,WSDL version 420,2013-05-28 12:12:00,
2013-05-28 06:17:00,44.6,41.6,28.79,North,-999,-999.0,-999.0,90,0.00,,,0.00,WSDL version 420,2013-05-28 12:17:00,
2013-05-28 06:22:00,51.4,46.3,28.79,North,-999,-999.0,-999.0,75,0.00,,,0.00,WSDL version 420,2013-05-28 12:22:00,
2013-05-28 06:27:00,56.9,46.6,28.79,North,-999,-999.0,-999.0,63,0.00,,,0.00,WSDL version 420,2013-05-28 12:27:00,
2013-05-28 06:32:00,60.4,44.6,28.79,North,-999,-999.0,-999.0,52,0.00,,,0.00,WSDL version 420,2013-05-28 12:32:00,
2013-05-28 06:37:00,57.6,38.1,28.79,North,-999,-999.0,-999.0,47,0.00,,,0.00,WSDL version 420,2013-05-28 12:37:00,
2013-05-28 06:42:00,54.6,35.1,28.79,North,-999,-999.0,-999.0,48,0.00,,,0.00,WSDL version 420,2013-05-28 12:42:00,
2013-05-28 06:47:00,53.7,34.5,28.79,North,-999,-999.0,-999.0,48,0.00,,,0.00,WSDL version 420,2013-05-28 12:47:00,
2013-05-28 06:52:00,55.4,36.2,28.79,North,-999,-999.0,-999.0,49,0.00,,,0.00,WSDL version 420,2013-05-28 12:52:00,
2013-05-28 06:57:00,56.6,36.7,28.79,North,-999,-999.0,-999.0,47,0.00,,,0.00,WSDL version 420,2013-05-28 12:57:00,
2013-05-28 07:02:00,57.4,36.9,28.82,North,-999,-999.0,-999.0,46,0.00,,,0.00,WSDL version 420,2013-05-28 13:02:00,
2013-05-28 07:07:00,57.9,36.4,28.82,North,-999,-999.0,-999.0,44,-99.99,,,-99.99,WSDL version 420,2013-05-28 13:07:00,
2013-05-28 07:12:00,56.0,34.8,28.82,North,-999,-999.0,-999.0,45,-99.99,,,-99.99,WSDL version 420,2013-05-28 13:12:00,
2013-05-28 07:17:00,54.7,33.8,28.79,North,-999,-999.0,-999.0,45,-99.99,,,-99.99,WSDL version 420,2013-05-28 13:17:00,
2013-05-28 07:22:00,53.8,33.7,28.79,North,-999,-999.0,-999.0,47,-99.99,,,-99.99,WSDL version 420,2013-05-28 13:22:00,
2013-05-28 07:27:00,53.8,34.2,28.79,North,-999,-999.0,-999.0,48,-99.99,,,-99.99,WSDL version 420,2013-05-28 13:27:00,
2013-05-28 07:32:00,54.0,34.7,28.79,North,-999,-999.0,-999.0,48,-99.99,,,-99.99,WSDL version 420,2013-05-28 13:32:00,
2013-05-28 07:37:00,53.7,34.5,28.79,North,-999,-999.0,-999.0,48,-99.99,,,-99.99,WSDL version 420,2013-05-28 13:37:00,
2013-05-28 07:42:00,53.5,34.6,28.79,North,-999,-999.0,-999.0,48,-99.99,,,-99.99,WSDL version 420,2013-05-28 13:42:00,
2013-05-28 07:47:00,53.6,34.9,28.79,North,-999,-999.0,-999.0,49,-99.99,,,-99.99,WSDL version 420,2013-05-28 13:47:00,
2013-05-28 07:52:00,53.9,35.2,28.79,North,-999,-999.0,-999.0,49,-99.99,,,-99.99,WSDL version 420,2013-05-28 13:52:00,
2013-05-28 07:57:00,54.1,35.4,28.79,North,-999,-999.0,-999.0,49,-99.99,,,-99.99,WSDL version 420,2013-05-28 13:57:00,
2013-05-28 08:02:00,54.6,35.9,28.79,North,-999,-999.0,-999.0,49,-99.99,,,-99.99,WSDL version 420,2013-05-28 14:02:00,
2013-05-28 08:07:00,55.3,36.2,28.79,North,-999,-999.0,-999.0,48,-99.99,,,-99.99,WSDL version 420,2013-05-28 14:07:00,
2013-05-28 08:12:00,56.1,36.5,28.79,North,-999,-999.0,-999.0,47,-99.99,,,-99.99,WSDL version 420,2013-05-28 14:12:00,
2013-05-28 08:17:00,57.2,36.2,28.79,North,-999,-999.0,-999.0,43,-99.99,,,-99.99,WSDL version 420,2013-05-28 14:17:00,
2013-05-28 08:22:00,59.1,34.2,28.79,North,-999,-999.0,-999.0,38,-99.99,,,-99.99,WSDL version 420,2013-05-28 14:22:00,
2013-05-28 08:27:00,59.0,33.3,28.79,North,-999,-999.0,-999.0,38,-99.99,,,-99.99,WSDL version 420,2013-05-28 14:27:00,
2013-05-28 08:32:00,58.9,32.5,28.79,North,-999,-999.0,-999.0,36,-99.99,,,-99.99,WSDL version 420,2013-05-28 14:32:00,
2013-05-28 08:37:00,59.0,32.3,28.79,North,-999,-999.0,-999.0,36,-99.99,,,-99.99,WSDL version 420,2013-05-28 14:37:00,
2013-05-28 08:42:00,58.2,31.6,28.79,North,-999,-999.0,-999.0,37,-99.99,,,-99.99,WSDL version 420,2013-05-28 14:42:00,
2013-05-28 08:47:00,57.3,31.5,28.79,North,-999,-999.0,-999.0,37,-99.99,,,-99.99,WSDL version 420,2013-05-28 14:47:00,
2013-05-28 08:52:00,57.3,31.5,28.79,North,-999,-999.0,-999.0,38,-99.99,,,-99.99,WSDL version 420,2013-05-28 14:52:00,
2013-05-28 08:57:00,58.6,32.2,28.79,North,-999,-999.0,-999.0,37,-99.99,,,-99.99,WSDL version 420,2013-05-28 14:57:00,
2013-05-28 09:02:00,58.8,32.6,28.79,North,-999,-999.0,-999.0,37,-99.99,,,-99.99,WSDL version 420,2013-05-28 15:02:00,
2013-05-28 09:07:00,59.4,32.5,28.79,North,-999,-999.0,-999.0,36,-99.99,,,-99.99,WSDL version 420,2013-05-28 15:07:00,
2013-05-28 09:12:00,62.3,34.0,28.79,North,-999,-999.0,-999.0,34,-99.99,,,-99.99,WSDL version 420,2013-05-28 15:12:00,
2013-05-28 09:17:00,61.3,32.8,28.79,North,-999,-999.0,-999.0,34,-99.99,,,-99.99,WSDL version 420,2013-05-28 15:17:00,
2013-05-28 09:22:00,63.0,33.4,28.79,North,-999,-999.0,-999.0,32,-99.99,,,-99.99,WSDL version 420,2013-05-28 15:22:00,
2013-05-28 09:27:00,67.5,34.0,28.79,North,-999,-999.0,-999.0,26,-99.99,,,-99.99,WSDL version 420,2013-05-28 15:27:00,
2013-05-28 09:32:00,71.0,31.3,28.76,North,-999,-999.0,-999.0,22,-99.99,,,-99.99,WSDL version 420,2013-05-28 15:32:00,
2013-05-28 09:37:00,73.4,32.5,28.76,North,-999,-999.0,-999.0,22,-99.99,,,-99.99,WSDL version 420,2013-05-28 15:37:00,
2013-05-28 09:42:00,75.0,32.2,28.76,North,-999,-999.0,-999.0,21,-99.99,,,-99.99,WSDL version 420,2013-05-28 15:42:00,
2013-05-28 09:47:00,75.1,28.8,28.73,North,-999,-999.0,-999.0,18,-99.99,,,-99.99,WSDL version 420,2013-05-28 15:47:00,
2013-05-28 09:52:00,76.5,29.9,28.73,North,-999,-999.0,-999.0,18,-99.99,,,-99.99,WSDL version 420,2013-05-28 15:52:00,
2013-05-28 09:57:00,77.3,27.2,28.73,North,-999,-999.0,-999.0,15,-99.99,,,-99.99,WSDL version 420,2013-05-28 15:57:00,
2013-05-28 10:02:00,77.1,26.0,28.73,North,-999,-999.0,-999.0,15,-99.99,,,-99.99,WSDL version 420,2013-05-28 16:02:00,
2013-05-28 10:07:00,77.5,26.3,28.73,North,-999,-999.0,-999.0,15,-99.99,,,-99.99,WSDL version 420,2013-05-28 16:07:00,
2013-05-28 10:12:00,78.3,26.9,28.73,North,-999,-999.0,-999.0,15,-99.99,,,-99.99,WSDL version 420,2013-05-28 16:12:00,
2013-05-28 10:17:00,78.3,26.9,28.73,North,-999,-999.0,-999.0,15,-99.99,,,-99.99,WSDL version 420,2013-05-28 16:17:00,
2013-05-28 10:22:00,78.7,27.2,28.73,North,-999,-999.0,-999.0,15,-99.99,,,-99.99,WSDL version 420,2013-05-28 16:22:00,
2013-05-28 10:27:00,78.4,27.0,28.73,North,-999,-999.0,-999.0,15,-99.99,,,-99.99,WSDL version 420,2013-05-28 16:27:00,
2013-05-28 10:32:00,77.5,26.3,28.73,North,-999,-999.0,-999.0,15,-99.99,,,-99.99,WSDL version 420,2013-05-28 16:32:00,
2013-05-28 10:37:00,77.6,26.3,28.73,North,-999,-999.0,-999.0,15,-99.99,,,-99.99,WSDL version 420,2013-05-28 16:37:00,
2013-05-28 10:42:00,77.5,26.3,28.73,North,-999,-999.0,-999.0,15,-99.99,,,-99.99,WSDL version 420,2013-05-28 16:42:00,
2013-05-28 10:47:00,76.6,25.5,28.73,North,-999,-999.0,-999.0,15,-99.99,,,-99.99,WSDL version 420,2013-05-28 16:47:00,
2013-05-28 10:52:00,76.3,25.3,28.73,North,-999,-999.0,-999.0,15,-99.99,,,-99.99,WSDL version 420,2013-05-28 16:52:00,
2013-05-28 10:57:00,76.6,25.5,28.73,North,-999,-999.0,-999.0,15,-99.99,,,-99.99,WSDL version 420,2013-05-28 16:57:00,
2013-05-28 11:02:00,76.4,25.4,28.73,North,-999,-999.0,-999.0,15,-99.99,,,-99.99,WSDL version 420,2013-05-28 17:02:00,
2013-05-28 11:07:00,76.8,25.7,28.73,North,-999,-999.0,-999.0,15,-99.99,,,-99.99,WSDL version 420,2013-05-28 17:07:00,
2013-05-28 11:12:00,77.6,26.4,28.73,North,-999,-999.0,-999.0,15,-99.99,,,-99.99,WSDL version 420,2013-05-28 17:12:00,
2013-05-28 11:17:00,77.9,26.6,28.73,North,-999,-999.0,-999.0,15,-99.99,,,-99.99,WSDL version 420,2013-05-28 17:17:00,
2013-05-28 11:22:00,77.7,26.4,28.73,North,-999,-999.0,-999.0,15,-99.99,,,-99.99,WSDL version 420,2013-05-28 17:22:00,
2013-05-28 11:27:00,78.3,26.9,28.73,North,-999,-999.0,-999.0,15,-99.99,,,-99.99,WSDL version 420,2013-05-28 17:27:00,
2013-05-28 11:32:00,77.1,25.9,28.73,North,-999,-999.0,-999.0,15,-99.99,,,-99.99,WSDL version 420,2013-05-28 17:32:00,
2013-05-28 11:37:00,77.9,26.6,28.73,North,-999,-999.0,-999.0,15,-99.99,,,-99.99,WSDL version 420,2013-05-28 17:37:00,
2013-05-28 11:42:00,77.0,25.8,28.73,North,-999,-999.0,-999.0,15,-99.99,,,-99.99,WSDL version 420,2013-05-28 17:42:00,
2013-05-28 11:47:00,75.1,25.1,28.73,North,-999,-999.0,-999.0,16,-99.99,,,-99.99,WSDL version 420,2013-05-28 17:47:00,
2013-05-28 11:52:00,73.0,24.2,28.73,North,-999,-999.0,-999.0,16,-99.99,,,-99.99,WSDL version 420,2013-05-28 17:52:00,
2013-05-28 11:57:00,73.6,24.7,28.73,North,-999,-999.0,-999.0,16,-99.99,,,-99.99,WSDL version 420,2013-05-28 17:57:00,
2013-05-28 12:02:00,74.3,25.3,28.70,North,-999,-999.0,-999.0,16,-99.99,,,-99.99,WSDL version 420,2013-05-28 18:02:00,
2013-05-28 12:07:00,75.2,25.2,28.70,North,-999,-999.0,-999.0,15,-99.99,,,-99.99,WSDL version 420,2013-05-28 18:07:00,
2013-05-28 12:12:00,76.2,25.2,28.70,North,-999,-999.0,-999.0,15,-99.99,,,-99.99,WSDL version 420,2013-05-28 18:12:00,
2013-05-28 12:17:00,76.6,25.5,28.70,North,-999,-999.0,-999.0,15,-99.99,,,-99.99,WSDL version 420,2013-05-28 18:17:00,
2013-05-28 12:22:00,77.5,26.3,28.70,North,-999,-999.0,-999.0,15,-99.99,,,-99.99,WSDL version 420,2013-05-28 18:22:00,
2013-05-28 12:27:00,77.9,26.5,28.70,North,-999,-999.0,-999.0,15,-99.99,,,-99.99,WSDL version 420,2013-05-28 18:27:00,
2013-05-28 12:32:00,77.1,25.9,28.70,North,-999,-999.0,-999.0,15,-99.99,,,-99.99,WSDL version 420,2013-05-28 18:32:00,
2013-05-28 12:37:00,76.0,25.1,28.70,North,-999,-999.0,-999.0,15,-99.99,,,-99.99,WSDL version 420,2013-05-28 18:37:00,
2013-05-28 12:42:00,74.9,25.7,28.70,North,-999,-999.0,-999.0,16,-99.99,,,-99.99,WSDL version 420,2013-05-28 18:42:00,
2013-05-28 12:47:00,74.7,25.6,28.70,North,-999,-999.0,-999.0,16,-99.99,,,-99.99,WSDL version 420,2013-05-28 18:47:00,
2013-05-28 12:52:00,74.1,25.1,28.70,North,-999,-999.0,-999.0,16,-99.99,,,-99.99,WSDL version 420,2013-05-28 18:52:00,
2013-05-28 12:57:00,74.3,25.2,28.70,North,-999,-999.0,-999.0,16,-99.99,,,-99.99,WSDL version 420,2013-05-28 18:57:00,
2013-05-28 13:02:00,75.4,25.3,28.70,North,-999,-999.0,-999.0,15,-99.99,,,-99.99,WSDL version 420,2013-05-28 19:02:00,
2013-05-28 13:07:00,76.5,25.5,28.70,North,-999,-999.0,-999.0,15,-99.99,,,-99.99,WSDL version 420,2013-05-28 19:07:00,
2013-05-28 13:12:00,76.6,25.6,28.70,North,-999,-999.0,-999.0,15,-99.99,,,-99.99,WSDL version 420,2013-05-28 19:12:00,
2013-05-28 13:17:00,76.1,25.2,28.70,North,-999,-999.0,-999.0,15,-99.99,,,-99.99,WSDL version 420,2013-05-28 19:17:00,
2013-05-28 13:22:00,76.6,25.5,28.70,North,-999,-999.0,-999.0,15,-99.99,,,-99.99,WSDL version 420,2013-05-28 19:22:00,
2013-05-28 13:27:00,76.8,25.7,28.70,North,-999,-999.0,-999.0,15,-99.99,,,-99.99,WSDL version 420,2013-05-28 19:27:00,
2013-05-28 13:32:00,77.1,25.9,28.70,North,-999,-999.0,-999.0,15,-99.99,,,-99.99,WSDL version 420,2013-05-28 19:32:00,
2013-05-28 13:37:00,77.8,26.5,28.70,North,-999,-999.0,-999.0,15,-99.99,,,-99.99,WSDL version 420,2013-05-28 19:37:00,
2013-05-28 13:42:00,77.5,26.2,28.70,North,-999,-999.0,-999.0,15,-99.99,,,-99.99,WSDL version 420,2013-05-28 19:42:00,
2013-05-28 13:47:00,77.4,26.1,28.67,North,-999,-999.0,-999.0,15,-99.99,,,-99.99,WSDL version 420,2013-05-28 19:47:00,
2013-05-28 13:52:00,77.4,26.1,28.67,North,-999,-999.0,-999.0,15,-99.99,,,-99.99,WSDL version 420,2013-05-28 19:52:00,
2013-05-28 13:57:00,77.4,26.2,28.67,North,-999,-999.0,-999.0,15,-99.99,,,-99.99,WSDL version 420,2013-05-28 19:57:00,
2013-05-28 14:02:00,77.0,25.9,28.67,North,-999,-999.0,-999.0,15,-99.99,,,-99.99,WSDL version 420,2013-05-28 20:02:00,
2013-05-28 14:07:00,76.8,25.7,28.67,North,-999,-999.0,-999.0,15,-99.99,,,-99.99,WSDL version 420,2013-05-28 20:07:00,
2013-05-28 14:12:00,77.3,26.1,28.67,North,-999,-999.0,-999.0,15,-99.99,,,-99.99,WSDL version 420,2013-05-28 20:12:00,
2013-05-28 14:17:00,76.7,25.6,28.67,North,-999,-999.0,-999.0,15,-99.99,,,-99.99,WSDL version 420,2013-05-28 20:17:00,
2013-05-28 14:22:00,74.3,24.8,28.67,North,-999,-999.0,-999.0,16,-99.99,,,-99.99,WSDL version 420,2013-05-28 20:22:00,
2013-05-28 14:27:00,73.3,24.5,28.67,North,-999,-999.0,-999.0,16,-99.99,,,-99.99,WSDL version 420,2013-05-28 20:27:00,
2013-05-28 14:32:00,72.9,24.1,28.67,North,-999,-999.0,-999.0,16,-99.99,,,-99.99,WSDL version 420,2013-05-28 20:32:00,
2013-05-28 14:37:00,71.9,23.7,28.67,North,-999,-999.0,-999.0,17,-99.99,,,-99.99,WSDL version 420,2013-05-28 20:37:00,
2013-05-28 14:42:00,71.0,24.0,28.67,North,-999,-999.0,-999.0,17,-99.99,,,-99.99,WSDL version 420,2013-05-28 20:42:00,
2013-05-28 14:47:00,71.0,24.1,28.67,North,-999,-999.0,-999.0,17,-99.99,,,-99.99,WSDL version 420,2013-05-28 20:47:00,
2013-05-28 14:52:00,71.1,24.1,28.67,North,-999,-999.0,-999.0,17,-99.99,,,-99.99,WSDL version 420,2013-05-28 20:52:00,
2013-05-28 14:57:00,71.2,24.2,28.67,North,-999,-999.0,-999.0,17,-99.99,,,-99.99,WSDL version 420,2013-05-28 20:57:00,
2013-05-28 15:02:00,72.0,23.4,28.67,North,-999,-999.0,-999.0,16,-99.99,,,-99.99,WSDL version 420,2013-05-28 21:02:00,
2013-05-28 15:07:00,72.8,24.0,28.67,North,-999,-999.0,-999.0,16,-99.99,,,-99.99,WSDL version 420,2013-05-28 21:07:00,
2013-05-28 15:12:00,73.3,24.4,28.67,North,-999,-999.0,-999.0,16,-99.99,,,-99.99,WSDL version 420,2013-05-28 21:12:00,
2013-05-28 15:17:00,73.6,24.7,28.67,North,-999,-999.0,-999.0,16,-99.99,,,-99.99,WSDL version 420,2013-05-28 21:17:00,
2013-05-28 15:22:00,73.4,24.5,28.67,North,-999,-999.0,-999.0,16,-99.99,,,-99.99,WSDL version 420,2013-05-28 21:22:00,
2013-05-28 15:27:00,72.9,24.1,28.67,North,-999,-999.0,-999.0,16,-99.99,,,-99.99,WSDL version 420,2013-05-28 21:27:00,
2013-05-28 15:32:00,72.3,23.7,28.67,North,-999,-999.0,-999.0,16,-99.99,,,-99.99,WSDL version 420,2013-05-28 21:32:00,
2013-05-28 15:37:00,72.1,23.5,28.67,North,-999,-999.0,-999.0,16,-99.99,,,-99.99,WSDL version 420,2013-05-28 21:37:00,
2013-05-28 15:42:00,72.3,23.7,28.67,North,-999,-999.0,-999.0,16,-99.99,,,-99.99,WSDL version 420,2013-05-28 21:42:00,
2013-05-28 15:47:00,72.4,23.7,28.64,North,-999,-999.0,-999.0,16,-99.99,,,-99.99,WSDL version 420,2013-05-28 21:47:00,
2013-05-28 15:52:00,72.0,23.4,28.64,North,-999,-999.0,-999.0,16,-99.99,,,-99.99,WSDL version 420,2013-05-28 21:52:00,
2013-05-28 15:57:00,71.6,23.1,28.64,North,-999,-999.0,-999.0,16,-99.99,,,-99.99,WSDL version 420,2013-05-28 21:57:00,
2013-05-28 16:02:00,72.0,23.4,28.67,North,-999,-999.0,-999.0,16,-99.99,,,-99.99,WSDL version 420,2013-05-28 22:02:00,
2013-05-28 16:07:00,72.4,23.7,28.67,North,-999,-999.0,-999.0,16,0.00,,,0.00,WSDL version 420,2013-05-28 22:07:00,
2013-05-28 16:12:00,72.6,23.9,28.67,North,-999,-999.0,-999.0,16,-99.99,,,-99.99,WSDL version 420,2013-05-28 22:12:00,
2013-05-28 16:17:00,73.1,24.3,28.67,North,-999,-999.0,-999.0,16,-99.99,,,-99.99,WSDL version 420,2013-05-28 22:17:00,
2013-05-28 16:22:00,73.8,24.8,28.67,North,-999,-999.0,-999.0,16,-99.99,,,-99.99,WSDL version 420,2013-05-28 22:22:00,
2013-05-28 16:27:00,74.3,25.2,28.67,North,-999,-999.0,-999.0,16,-99.99,,,-99.99,WSDL version 420,2013-05-28 22:27:00,
2013-05-28 16:32:00,74.4,25.3,28.67,North,-999,-999.0,-999.0,16,-99.99,,,-99.99,WSDL version 420,2013-05-28 22:32:00,
2013-05-28 16:37:00,74.2,25.2,28.67,North,-999,-999.0,-999.0,16,-99.99,,,-99.99,WSDL version 420,2013-05-28 22:37:00,
2013-05-28 16:42:00,73.6,24.7,28.67,North,-999,-999.0,-999.0,16,-99.99,,,-99.99,WSDL version 420,2013-05-28 22:42:00,
2013-05-28 16:47:00,73.2,24.4,28.67,North,-999,-999.0,-999.0,16,-99.99,,,-99.99,WSDL version 420,2013-05-28 22:47:00,
2013-05-28 16:52:00,-999.0,-99.9,28.67,North,-999,-999.0,-999.0,-999,-99.99,,,-99.99,WSDL version 420,2013-05-28 22:52:00,
2013-05-28 16:57:00,72.7,24.0,28.67,North,-999,-999.0,-999.0,16,-99.99,,,-99.99,WSDL version 420,2013-05-28 22:57:00,
2013-05-28 17:02:00,72.2,23.5,28.64,North,-999,-999.0,-999.0,16,-99.99,,,-99.99,WSDL version 420,2013-05-28 23:02:00,
2013-05-28 17:07:00,71.1,24.1,28.64,North,-999,-999.0,-999.0,17,-99.99,,,-99.99,WSDL version 420,2013-05-28 23:07:00,
2013-05-28 17:12:00,70.9,24.0,28.64,North,-999,-999.0,-999.0,17,0.00,,,0.00,WSDL version 420,2013-05-28 23:12:00,
2013-05-28 17:17:00,70.8,23.9,28.67,North,-999,-999.0,-999.0,17,-99.99,,,-99.99,WSDL version 420,2013-05-28 23:17:00,
2013-05-28 17:22:00,70.4,23.6,28.67,North,-999,-999.0,-999.0,17,-99.99,,,-99.99,WSDL version 420,2013-05-28 23:22:00,
2013-05-28 17:27:00,70.1,23.3,28.67,North,-999,-999.0,-999.0,17,-99.99,,,-99.99,WSDL version 420,2013-05-28 23:27:00,
2013-05-28 17:32:00,69.8,23.1,28.67,North,-999,-999.0,-999.0,17,-99.99,,,-99.99,WSDL version 420,2013-05-28 23:32:00,
2013-05-28 17:37:00,69.9,23.2,28.67,North,-999,-999.0,-999.0,17,-99.99,,,-99.99,WSDL version 420,2013-05-28 23:37:00,
2013-05-28 17:42:00,69.9,23.1,28.67,North,-999,-999.0,-999.0,17,-99.99,,,-99.99,WSDL version 420,2013-05-28 23:42:00,
2013-05-28 17:47:00,69.4,22.8,28.64,North,-999,-999.0,-999.0,17,-99.99,,,-99.99,WSDL version 420,2013-05-28 23:47:00,
2013-05-28 17:52:00,69.3,22.6,28.64,North,-999,-999.0,-999.0,17,-99.99,,,-99.99,WSDL version 420,2013-05-28 23:52:00,
2013-05-28 17:57:00,68.9,22.3,28.64,North,-999,-999.0,-999.0,17,-99.99,,,-99.99,WSDL version 420,2013-05-28 23:57:00,
2013-05-28 18:02:00,68.5,22.0,28.61,North,-999,-999.0,-999.0,17,-99.99,,,-99.99,WSDL version 420,2013-05-29 00:02:00,
2013-05-28 18:08:00,68.7,22.1,28.61,North,-999,-999.0,-999.0,17,0.00,,,0.00,WSDL version 420,2013-05-29 00:08:00,
2013-05-28 18:13:00,69.5,22.8,28.61,North,-999,-999.0,-999.0,17,-99.99,,,-99.99,WSDL version 420,2013-05-29 00:13:00,
2013-05-28 18:18:00,70.7,23.8,28.61,North,-999,-999.0,-999.0,17,-99.99,,,-99.99,WSDL version 420,2013-05-29 00:18:00,
2013-05-28 18:23:00,70.7,23.8,28.61,North,-999,-999.0,-999.0,17,-99.99,,,-99.99,WSDL version 420,2013-05-29 00:23:00,
2013-05-28 18:28:00,69.9,23.2,28.61,North,-999,-999.0,-999.0,17,-99.99,,,-99.99,WSDL version 420,2013-05-29 00:28:00,
2013-05-28 18:33:00,69.3,22.6,28.61,North,-999,-999.0,-999.0,17,0.00,,,0.00,WSDL version 420,2013-05-29 00:33:00,
2013-05-28 18:38:00,68.6,22.1,28.61,North,-999,-999.0,-999.0,17,0.00,,,0.00,WSDL version 420,2013-05-29 00:38:00,
2013-05-28 18:43:00,68.1,21.7,28.61,North,-999,-999.0,-999.0,17,0.00,,,0.00,WSDL version 420,2013-05-29 00:43:00,
2013-05-28 18:48:00,67.6,21.3,28.61,North,-999,-999.0,-999.0,17,0.00,,,0.00,WSDL version 420,2013-05-29 00:48:00,
2013-05-28 18:53:00,67.1,20.9,28.61,North,-999,-999.0,-999.0,17,0.00,,,0.00,WSDL version 420,2013-05-29 00:53:00,
2013-05-28 18:58:00,66.7,20.6,28.61,North,-999,-999.0,-999.0,17,0.00,,,0.00,WSDL version 420,2013-05-29 00:58:00,
2013-05-28 19:03:00,66.3,20.2,28.64,North,-999,-999.0,-999.0,17,0.00,,,0.00,WSDL version 420,2013-05-29 01:03:00,
2013-05-28 19:08:00,65.9,21.3,28.64,North,-999,-999.0,-999.0,18,0.00,,,0.00,WSDL version 420,2013-05-29 01:08:00,
2013-05-28 19:13:00,65.5,20.9,28.64,North,-999,-999.0,-999.0,18,0.00,,,0.00,WSDL version 420,2013-05-29 01:13:00,
2013-05-28 19:18:00,64.6,22.3,28.64,North,-999,-999.0,-999.0,23,0.00,,,0.00,WSDL version 420,2013-05-29 01:18:00,
2013-05-28 19:23:00,63.6,26.2,28.64,North,-999,-999.0,-999.0,24,0.00,,,0.00,WSDL version 420,2013-05-29 01:23:00,
2013-05-28 19:28:00,62.6,26.3,28.64,North,-999,-999.0,-999.0,26,-99.99,,,-99.99,WSDL version 420,2013-05-29 01:28:00,
2013-05-28 19:33:00,61.4,26.5,28.67,North,-999,-999.0,-999.0,26,0.00,,,0.00,WSDL version 420,2013-05-29 01:33:00,
2013-05-28 19:38:00,61.0,25.2,28.67,North,-999,-999.0,-999.0,25,0.00,,,0.00,WSDL version 420,2013-05-29 01:38:00,
2013-05-28 19:43:00,61.0,25.4,28.67,North,-999,-999.0,-999.0,26,0.00,,,0.00,WSDL version 420,2013-05-29 01:43:00,
2013-05-28 19:48:00,60.9,25.8,28.67,North,-999,-999.0,-999.0,26,0.00,,,0.00,WSDL version 420,2013-05-29 01:48:00,
2013-05-28 19:53:00,60.7,26.2,28.67,North,-999,-999.0,-999.0,27,0.00,,,0.00,WSDL version 420,2013-05-29 01:53:00,
2013-05-28 19:58:00,60.2,27.4,28.67,North,-999,-999.0,-999.0,29,0.00,,,0.00,WSDL version 420,2013-05-29 01:58:00,
2013-05-28 20:03:00,59.8,28.3,28.67,North,-999,-999.0,-999.0,31,0.00,,,0.00,WSDL version 420,2013-05-29 02:03:00,
2013-05-28 20:08:00,59.3,28.7,28.67,North,-999,-999.0,-999.0,31,0.00,,,0.00,WSDL version 420,2013-05-29 02:08:00,
2013-05-28 20:13:00,59.0,29.0,28.67,North,-999,-999.0,-999.0,32,-99.99,,,-99.99,WSDL version 420,2013-05-29 02:13:00,
2013-05-28 20:18:00,58.5,29.2,28.67,North,-999,-999.0,-999.0,34,-99.99,,,-99.99,WSDL version 420,2013-05-29 02:18:00,
2013-05-28 20:23:00,58.0,28.4,28.67,North,-999,-999.0,-999.0,32,0.00,,,0.00,WSDL version 420,2013-05-29 02:23:00,
2013-05-28 20:28:00,57.6,28.5,28.67,North,-999,-999.0,-999.0,33,-99.99,,,-99.99,WSDL version 420,2013-05-29 02:28:00,
2013-05-28 20:33:00,57.2,28.9,28.67,North,-999,-999.0,-999.0,34,0.00,,,0.00,WSDL version 420,2013-05-29 02:33:00,
2013-05-28 20:38:00,57.0,29.7,28.67,North,-999,-999.0,-999.0,35,0.00,,,0.00,WSDL version 420,2013-05-29 02:38:00,
2013-05-28 20:43:00,57.1,29.8,28.67,North,-999,-999.0,-999.0,35,-99.99,,,-99.99,WSDL version 420,2013-05-29 02:43:00,
2013-05-28 20:48:00,57.2,29.8,28.67,North,-999,-999.0,-999.0,35,-99.99,,,-99.99,WSDL version 420,2013-05-29 02:48:00,
2013-05-28 20:53:00,57.1,30.2,28.67,North,-999,-999.0,-999.0,36,0.00,,,0.00,WSDL version 420,2013-05-29 02:53:00,
2013-05-28 20:58:00,57.1,31.3,28.67,North,-999,-999.0,-999.0,38,0.00,,,0.00,WSDL version 420,2013-05-29 02:58:00,
2013-05-28 21:03:00,56.8,31.5,28.67,North,-999,-999.0,-999.0,38,0.00,,,0.00,WSDL version 420,2013-05-29 03:03:00,
2013-05-28 21:08:00,56.4,31.1,28.67,North,-999,-999.0,-999.0,38,0.00,,,0.00,WSDL version 420,2013-05-29 03:08:00,
2013-05-28 21:13:00,56.1,31.0,28.67,North,-999,-999.0,-999.0,39,0.00,,,0.00,WSDL version 420,2013-05-29 03:13:00,
2013-05-28 21:18:00,55.8,31.5,28.67,North,-999,-999.0,-999.0,40,0.00,,,0.00,WSDL version 420,2013-05-29 03:18:00,
2013-05-28 21:23:00,55.9,32.8,28.67,North,-999,-999.0,-999.0,42,0.00,,,0.00,WSDL version 420,2013-05-29 03:23:00,
2013-05-28 21:28:00,55.6,34.3,28.67,North,-999,-999.0,-999.0,46,0.00,,,0.00,WSDL version 420,2013-05-29 03:28:00,
2013-05-28 21:33:00,55.1,34.7,28.67,North,-999,-999.0,-999.0,46,0.00,,,0.00,WSDL version 420,2013-05-29 03:33:00,
2013-05-28 21:38:00,54.6,34.5,28.67,North,-999,-999.0,-999.0,47,-99.99,,,-99.99,WSDL version 420,2013-05-29 03:38:00,
2013-05-28 21:43:00,54.2,34.5,28.67,North,-999,-999.0,-999.0,47,0.00,,,0.00,WSDL version 420,2013-05-29 03:43:00,
2013-05-28 21:48:00,53.9,35.5,28.70,North,-999,-999.0,-999.0,53,0.00,,,0.00,WSDL version 420,2013-05-29 03:48:00,
2013-05-28 21:53:00,53.7,51.5,28.70,North,-999,-999.0,-999.0,100,0.00,,,0.00,WSDL version 420,2013-05-29 03:53:00,
2013-05-28 21:58:00,54.0,54.0,28.70,North,-999,-999.0,-999.0,100,0.00,,,0.00,WSDL version 420,2013-05-29 03:58:00,
2013-05-28 22:01:00,53.9,53.9,28.70,North,-999,-999.0,-999.0,100,0.00,,,0.00,WSDL version 420,2013-05-29 04:01:00,
2013-05-28 22:02:00,53.8,53.8,28.70,North,-999,-999.0,-999.0,100,0.00,,,0.00,WSDL version 420,2013-05-29 04:02:00,
2013-05-28 22:03:00,53.8,53.8,28.70,North,-999,-999.0,-999.0,100,0.00,,,0.00,WSDL version 420,2013-05-29 04:03:00,
2013-05-28 22:04:00,53.8,53.8,28.70,North,-999,-999.0,-999.0,100,0.00,,,0.00,WSDL version 420,2013-05-29 04:04:00,
2013-05-28 22:09:00,53.7,53.7,28.70,North,-999,-999.0,-999.0,100,0.00,,,0.00,WSDL version 420,2013-05-29 04:09:00,
2013-05-28 22:14:00,53.8,53.8,28.70,North,-999,-999.0,-999.0,100,0.00,,,0.00,WSDL version 420,2013-05-29 04:14:00,
2013-05-28 22:15:00,53.8,53.8,28.70,North,-999,-999.0,-999.0,100,0.00,,,0.00,WSDL version 420,2013-05-29 04:15:00,
2013-05-28 22:20:00,53.1,53.1,28.70,North,-999,-999.0,-999.0,100,0.00,,,0.00,WSDL version 420,2013-05-29 04:20:00,
2013-05-28 22:25:00,52.6,52.6,28.70,North,-999,-999.0,-999.0,100,0.00,,,0.00,WSDL version 420,2013-05-29 04:25:00,
2013-05-28 22:30:00,51.4,51.4,28.70,North,-999,-999.0,-999.0,100,0.00,,,0.00,WSDL version 420,2013-05-29 04:30:00,
2013-05-28 22:35:00,51.0,51.0,28.70,North,-999,-999.0,-999.0,100,0.00,,,0.00,WSDL version 420,2013-05-29 04:35:00,
2013-05-28 22:40:00,50.8,50.8,28.70,North,-999,-999.0,-999.0,100,0.00,,,0.00,WSDL version 420,2013-05-29 04:40:00,
2013-05-28 22:45:00,50.6,50.6,28.70,North,-999,-999.0,-999.0,100,-99.99,,,-99.99,WSDL version 420,2013-05-29 04:45:00,
2013-05-28 22:50:00,50.5,50.5,28.70,North,-999,-999.0,-999.0,100,0.00,,,0.00,WSDL version 420,2013-05-29 04:50:00,
2013-05-28 22:55:00,50.7,50.7,28.70,North,-999,-999.0,-999.0,100,-99.99,,,-99.99,WSDL version 420,2013-05-29 04:55:00,
2013-05-28 23:00:00,50.8,50.8,28.67,North,-999,-999.0,-999.0,100,0.00,,,0.00,WSDL version 420,2013-05-29 05:00:00,
2013-05-28 23:05:00,50.9,50.9,28.67,North,-999,-999.0,-999.0,100,0.00,,,0.00,WSDL version 420,2013-05-29 05:05:00,
2013-05-28 23:10:00,50.8,50.8,28.67,North,-999,-999.0,-999.0,100,0.00,,,0.00,WSDL version 420,2013-05-29 05:10:00,
2013-05-28 23:15:00,51.0,51.0,28.67,North,-999,-999.0,-999.0,100,0.00,,,0.00,WSDL version 420,2013-05-29 05:15:00,
2013-05-28 23:20:00,51.1,51.1,28.67,North,-999,-999.0,-999.0,100,0.00,,,0.00,WSDL version 420,2013-05-29 05:20:00,
2013-05-28 23:25:00,51.1,51.1,28.67,North,-999,-999.0,-999.0,100,0.00,,,0.00,WSDL version 420,2013-05-29 05:25:00,
2013-05-28 23:30:00,51.2,51.2,28.70,North,-999,-999.0,-999.0,100,0.00,,,0.00,WSDL version 420,2013-05-29 05:30:00,
2013-05-28 23:35:00,51.3,51.3,28.70,North,-999,-999.0,-999.0,100,0.00,,,0.00,WSDL version 420,2013-05-29 05:35:00,
2013-05-28 23:40:00,51.4,51.4,28.70,North,-999,-999.0,-999.0,100,-99.99,,,-99.99,WSDL version 420,2013-05-29 05:40:00,
2013-05-28 23:45:00,-999.0,-99.9,28.70,North,-999,-999.0,-999.0,-999,0.00,,,0.00,WSDL version 420,2013-05-29 05:45:00,
2013-05-28 23:50:00,51.4,51.4,28.70,North,-999,-999.0,-999.0,100,-99.99,,,-99.99,WSDL version 420,2013-05-29 05:50:00,
2013-05-28 23:55:00,51.3,51.3,28.70,North,-999,-999.0,-999.0,100,0.00,,,0.00,WSDL version 420,2013-05-29 05:55:00,